Weather History for Pensacola NAS, FL

Change the Weather History Date:

Saturday, January 19, 2013

  Actual Average Record
Temperature  
Mean Temperature 52 °F -  
Max Temperature 62 °F 59 °F - (-1)
Min Temperature 41 °F 41 °F - (-1)
Degree Days  
Heating Degree Days 14    
Growing Degree Days 2 (Base 50)    
Moisture  
Dew Point 41 °F    
Average Humidity 74    
Maximum Humidity 100    
Minimum Humidity 50    
Precipitation  
Precipitation 0.00 in - - ()
Sea Level Pressure  
Sea Level Pressure 30.31 in    
Wind  
Wind Speed 5 mph (NE)    
Max Wind Speed 13 mph    
Max Gust Speed -    
Visibility 10 miles    
Events      
Averages and records for this station are not official NWS values.
T = Trace of Precipitation, MM = Missing Value Source: NWS Daily Summary

Daily Weather History Graph

Daily Weather History Graph

Search for Another Location

Airport:

Trip Planner

Search our weather history database for the weather conditions in past years. The results will help you decide how hot, cold, wet, or windy it might be!

Date:

Astronomy

Jan. 19, 2013 Rise Set
Actual Time 6:45 AM CST 5:14 PM CST
Civil Twilight 6:20 AM CST 5:40 PM CST
Nautical Twilight 5:50 AM CST 6:09 PM CST
Astronomical Twilight 5:21 AM CST 6:38 PM CST
Moon 11:36 AM CST (1/19) 12:25 AM CST (1/19)
Length of Visible Light 11h 20m
Length of Day
10h 29m
First Quarter, 57% of the Moon is Illuminated
Jan 19
First Quarter
Jan 26
Full
Feb 3
Last Quarter
Feb 10
New
Feb 17
First Quarter

Hourly Weather History & Observations

Time (CST) Temp. Windchill Dew Point Humidity Pressure Visibility Wind Dir Wind Speed Gust Speed Precip Events Conditions
12:56 AM 41.0 °F 37.1 °F 37.0 °F 86% 30.36 in 10.0 mi NNE 5.8 mph - N/A   Clear
1:56 AM 43.0 °F 39.5 °F 37.0 °F 80% 30.36 in 10.0 mi North 5.8 mph - N/A   Clear
2:56 AM 41.0 °F 38.0 °F 36.0 °F 82% 30.37 in 10.0 mi North 4.6 mph - N/A   Clear
3:56 AM 41.0 °F 37.1 °F 35.1 °F 79% 30.36 in 10.0 mi NE 5.8 mph - N/A   Scattered Clouds
4:56 AM 44.1 °F 41.5 °F 37.0 °F 76% 30.36 in 10.0 mi NNE 4.6 mph - N/A   Overcast
5:56 AM 43.0 °F 38.8 °F 35.1 °F 74% 30.36 in 10.0 mi NE 6.9 mph - N/A   Mostly Cloudy
6:56 AM 43.0 °F 39.5 °F 36.0 °F 76% 30.37 in 10.0 mi NE 5.8 mph - N/A   Scattered Clouds
7:56 AM 48.9 °F - 37.0 °F 64% 30.39 in 10.0 mi NE 6.9 mph - N/A   Scattered Clouds
8:56 AM 51.1 °F - 36.0 °F 56% 30.40 in 10.0 mi ENE 12.7 mph - N/A   Scattered Clouds
9:56 AM 55.0 °F - 37.9 °F 53% 30.40 in 10.0 mi ENE 10.4 mph - N/A   Mostly Cloudy
10:56 AM 57.9 °F - 39.9 °F 51% 30.38 in 10.0 mi East 8.1 mph - N/A   Mostly Cloudy
11:56 AM 57.9 °F - 41.0 °F 53% 30.33 in 10.0 mi ENE 8.1 mph - N/A   Mostly Cloudy
12:56 PM 62.1 °F - 43.0 °F 50% 30.30 in 10.0 mi ENE 6.9 mph - N/A   Mostly Cloudy
1:56 PM 62.1 °F - 44.1 °F 52% 30.27 in 10.0 mi East 5.8 mph - N/A   Mostly Cloudy
2:56 PM 62.1 °F - 45.0 °F 53% 30.26 in 10.0 mi East 5.8 mph - N/A   Mostly Cloudy
3:56 PM 61.0 °F - 45.0 °F 56% 30.26 in 10.0 mi East 4.6 mph - N/A   Mostly Cloudy
4:56 PM 57.0 °F - 45.0 °F 64% 30.26 in 10.0 mi ESE 3.5 mph - N/A   Mostly Cloudy
5:30 PM 53.6 °F - 48.2 °F 82% 30.25 in 10.0 mi Calm Calm - N/A   Mostly Cloudy
5:56 PM 53.1 °F - 48.0 °F 83% 30.25 in 10.0 mi East 3.5 mph - N/A   Clear
6:56 PM 51.1 °F - 46.9 °F 86% 30.26 in 10.0 mi Calm Calm - N/A   Clear
7:56 PM 48.0 °F - 46.9 °F 96% 30.27 in 10.0 mi Calm Calm - N/A   Clear
8:56 PM 46.0 °F - 45.0 °F 96% 30.26 in 10.0 mi Calm Calm - N/A   Clear
9:56 PM 44.1 °F - 44.1 °F 100% 30.26 in 10.0 mi Calm Calm - 0.00 in   Clear
10:56 PM 43.0 °F - 43.0 °F 100% 30.25 in 10.0 mi Calm Calm - N/A   Clear
11:56 PM 43.0 °F 41.3 °F 42.1 °F 97% 30.26 in 10.0 mi NNW 3.5 mph - 0.00 in   Clear